KE7PBG Weather Reports


time (UTC)temp
C
wind
direction
speed
KPH
gust
KPH
rain 1hr
cm
rain 24hr
cm
rain mn
cm
humidity
%
barometer
mb
20260510060035 13 254 0.0 0.0 0.00 0.00 0.00 86 1009.8
20260510054537 13 251 0.0 11.3 0.00 0.00 0.00 88 1009.9
20260510053038 11 53 0.0 3.2 0.00 0.00 0.00 85 1009.8
20260510051545 12 57 0.0 0.0 0.00 0.00 0.00 82 1009.7
20260510050040 12 57 0.0 0.0 0.00 0.00 0.00 82 1009.6
20260510044539 13 57 0.0 0.0 0.00 0.00 0.00 81 1009.5
20260510043046 14 57 0.0 0.0 0.00 0.00 0.00 78 1009.4
20260510041542 15 57 0.0 0.0 0.00 0.00 0.00 77 1009.4
20260510040050 15 57 0.0 0.0 0.00 0.00 0.00 75 1009.2
20260510034547 16 57 0.0 0.0 0.00 0.00 0.00 73 1009.2
20260510033053 17 57 0.0 0.0 0.00 0.00 0.00 69 1009.3
20260510031553 18 57 0.0 0.0 0.00 0.00 0.00 67 1009.3
20260510030048 18 57 0.0 1.6 0.00 0.00 0.00 66 1009.2
20260510024545 18 57 0.0 1.6 0.00 0.00 0.00 61 1009.1
20260510023033 18 57 0.0 3.2 0.00 0.00 0.00 61 1009.4
20260510021547 19 57 3.2 8.0 0.00 0.00 0.00 61 1009.3
20260510020034 19 61 3.2 8.0 0.00 0.00 0.00 61 1009.3
20260510014531 20 55 1.6 8.0 0.00 0.00 0.00 63 1009.5
20260510013032 20 49 1.6 8.0 0.00 0.00 0.00 63 1009.8
20260510011540 20 55 3.2 11.3 0.00 0.00 0.00 65 1009.9
20260510010033 20 51 8.0 14.5 0.00 0.00 0.00 62 1010.0
20260510004538 21 49 4.8 11.3 0.00 0.00 0.00 60 1010.1
20260510003034 21 58 3.2 8.0 0.00 0.00 0.00 61 1010.4
20260510001534 22 63 0.0 4.8 0.00 0.00 0.00 58 1010.5
20260510000058 22 65 1.6 4.8 0.00 0.00 0.00 58 1010.4
20260509234549 22 67 0.0 9.7 0.00 0.00 0.00 57 1010.7
20260509233040 22 342 0.0 3.2 0.00 0.00 0.00 59 1010.8
20260509231543 21 338 1.6 6.4 0.00 0.00 0.00 60 1011.0
20260509230041 22 79 1.6 8.0 0.00 0.00 0.00 57 1011.2
20260509224541 22 84 1.6 4.8 0.00 0.00 0.00 57 1011.5
20260509223044 21 80 1.6 6.4 0.00 0.00 0.00 57 1011.4
20260509221546 22 165 3.2 9.7 0.00 0.00 0.00 60 1011.8
20260509220027 22 280 1.6 8.0 0.00 0.00 0.00 60 1012.0
20260509214529 21 295 3.2 11.3 0.00 0.00 0.00 61 1012.2
20260509213027 21 50 0.0 6.4 0.00 0.00 0.00 60 1012.5
20260509211526 20 298 3.2 9.7 0.00 0.00 0.00 61 1012.5
20260509210037 20 5 1.6 4.8 0.00 0.00 0.00 60 1012.5
20260509204535 20 305 0.0 4.8 0.00 0.00 0.00 65 1012.7
20260509203029 20 274 1.6 11.3 0.00 0.00 0.00 63 1012.9
20260509201537 20 65 1.6 4.8 0.00 0.00 0.00 65 1012.9
20260509200035 20 26 0.0 4.8 0.00 0.00 0.00 65 1013.1
20260509194536 20 278 1.6 8.0 0.00 0.00 0.00 67 1013.3
20260509193034 20 109 0.0 4.8 0.00 0.00 0.00 69 1013.4
20260509191534 19 273 4.8 11.3 0.00 0.00 0.00 70 1013.9
20260509190036 18 266 4.8 11.3 0.00 0.00 0.00 70 1014.0
20260509184553 18 294 1.6 9.7 0.00 0.00 0.00 71 1014.1
20260509183035 17 272 1.6 6.4 0.00 0.00 0.00 72 1014.2
20260509181546 17 306 1.6 6.4 0.00 0.00 0.00 73 1014.2
20260509180039 17 279 0.0 9.7 0.00 0.00 0.00 77 1014.4
20260509174539 16 262 1.6 11.3 0.00 0.00 0.00 76 1014.3
20260509173023 16 44 3.2 8.0 0.00 0.00 0.00 79 1014.4
20260509171525 15 348 1.6 6.4 0.00 0.00 0.00 84 1014.7
20260509170025 15 320 1.6 6.4 0.00 0.00 0.00 88 1014.8
20260509164524 13 318 0.0 6.4 0.00 0.00 0.00 92 1014.7
20260509163025 12 296 1.6 6.4 0.00 0.00 0.00 94 1014.8
20260509161529 12 293 1.6 8.0 0.00 0.00 0.00 95 1015.0
20260509160034 11 301 0.0 0.0 0.00 0.00 0.00 95 1015.1
20260509154532 11 300 0.0 0.0 0.00 0.00 0.00 95 1015.3
20260509153042 10 291 0.0 0.0 0.00 0.00 0.00 95 1015.4
20260509151530 10 290 0.0 0.0 0.00 0.00 0.00 95 1015.6
20260509150039 8 289 0.0 0.0 0.00 0.00 0.00 95 1015.8
20260509144548 8 289 0.0 0.0 0.00 0.00 0.00 95 1015.8
20260509143029 8 289 0.0 0.0 0.00 0.00 0.00 94 1015.7
20260509141534 7 289 0.0 0.0 0.00 0.00 0.00 94 1015.6
20260509140033 7 289 0.0 0.0 0.00 0.00 0.00 94 1015.7
20260509134533 7 289 0.0 0.0 0.00 0.00 0.00 94 1015.6
20260509133019 6 289 0.0 0.0 0.00 0.00 0.00 94 1015.5
20260509131515 6 289 0.0 0.0 0.00 0.00 0.00 94 1015.5
20260509130018 6 289 0.0 0.0 0.00 0.00 0.00 93 1015.7
20260509124517 6 289 0.0 0.0 0.00 0.00 0.00 93 1015.8
20260509123020 7 289 0.0 0.0 0.00 0.00 0.00 93 1015.7
20260509121537 7 289 0.0 0.0 0.00 0.00 0.00 93 1015.8
20260509120020 7 289 0.0 0.0 0.00 0.00 0.00 93 1015.9
20260509114531 8 289 0.0 0.0 0.00 0.00 0.00 93 1015.8
20260509113031 8 289 0.0 0.0 0.00 0.00 0.00 93 1016.2
20260509111524 7 289 0.0 0.0 0.00 0.00 0.00 93 1016.3
20260509110029 7 289 0.0 0.0 0.00 0.00 0.00 93 1016.4
20260509104538 7 289 0.0 0.0 0.00 0.00 0.00 93 1016.4
20260509103009 7 289 0.0 0.0 0.00 0.00 0.00 93 1016.3
20260509101510 7 289 0.0 0.0 0.00 0.00 0.00 93 1016.3
20260509100015 6 289 0.0 0.0 0.00 0.00 0.00 93 1016.5
20260509094526 6 289 0.0 0.0 0.00 0.00 0.00 92 1016.5
20260509093014 6 289 0.0 0.0 0.00 0.00 0.00 92 1016.5
20260509091533 6 289 0.0 0.0 0.00 0.00 0.00 92 1016.6
20260509090022 6 289 0.0 0.0 0.00 0.00 0.00 91 1016.6
20260509084523 6 289 0.0 0.0 0.00 0.00 0.00 91 1016.7
20260509083022 6 289 0.0 0.0 0.00 0.00 0.00 91 1016.8
20260509081527 6 289 0.0 0.0 0.00 0.00 0.00 90 1016.8
20260509080007 7 289 0.0 0.0 0.00 0.00 0.00 90 1016.7
20260509074507 7 288 0.0 0.0 0.00 0.00 0.00 90 1016.6
20260509073011 7 288 0.0 0.0 0.00 0.00 0.00 90 1016.6
20260509071513 7 288 0.0 0.0 0.00 0.00 0.00 89 1016.6
20260509070013 8 288 0.0 0.0 0.00 0.00 0.00 88 1016.5
20260509064515 8 288 0.0 0.0 0.00 0.00 0.00 88 1016.6
20260509063025 9 288 0.0 0.0 0.00 0.00 0.00 88 1016.6
20260509061516 9 288 0.0 0.0 0.00 0.00 0.00 88 1016.5